Regional Weather Roundup
Issued by NWS

Home | Current Version | Previous Version | Text Only | Print | Product List | Glossary Off
Versions: 1 2 3 4 5 6 7 8 9 10 11 12 13 14 15 16 17 18 19 20 21 22 23 24 25 26 27 28 29 30 31 32 33 34 35 36 37 38 39 40 41 42 43 44 45 46 47 48 49 50

975
ASUS45 KBOU 180210
RWRCO

WEATHER ROUNDUP FOR COLORADO
NATIONAL WEATHER SERVICE DENVER/BOULDER CO
700 PM MST WED JAN 17 2018

NOTE: "FAIR" INDICATES FEW OR NO CLOUDS BELOW 12000 FEET WITH NO
SIGNIFICANT WEATHER AND/OR OBSTRUCTIONS TO VISIBILITY.

COZ001>005-013-030-031-180300-
...NORTHWEST COLORADO...

CITY           SKY/WX    TMP DP  RH WIND       PRES   REMARKS
CRAIG          FAIR      19   9  65 SE5       30.37R WCI  12
HAYDEN         FAIR     N/A N/A N/A S3        30.38R
MEEKER         FAIR      30  20  66 CALM      30.36R
RABBIT EARS PA FAIR      19  16  86 W9        30.36S WCI   9
STEAMBOAT SPGS FAIR      23  10  58 CALM      30.36F
WALDEN         FAIR      19   9  63 SE6       30.35S WCI  11
$$

COZ006>008-011-180300-
...WEST CENTRAL VALLEYS...

CITY           SKY/WX    TMP DP  RH WIND       PRES   REMARKS
GRAND JUNCTION FAIR      29  14  53 CALM      30.36R
MONTROSE       FAIR      28  12  51 S8        30.38R WCI  20
EAGLE          FAIR      24   8  50 E6        30.39S WCI  17
RIFLE          FAIR      31  15  52 SE3       30.36R
DELTA          FAIR      35  11  37 CALM      30.37S
NUCLA          FAIR      32  12  43 E7        30.38R WCI  26
$$

COZ017>023-064>068-180300-
...SOUTHWEST COLORADO...

CITY           SKY/WX    TMP DP  RH WIND       PRES   REMARKS
DURANGO        FAIR      29  17  61 NE5       30.31R WCI  24
CORTEZ         FAIR      27  18  69 NE8       30.32R WCI  19
PAGOSA SPRINGS FAIR      27  18  70 CALM      30.32S
TELLURIDE      FAIR      29  11  47 CALM      30.38R
WOLF CREEK PAS FAIR      23 -13  20 NW3       30.44R
$$

COZ009-010-012-014-032>034-037-058>063-180300-
...CENTRAL COLORADO...

CITY           SKY/WX    TMP DP  RH WIND       PRES   REMARKS
ASPEN          FAIR      24  11  57 S7        30.35R WCI  16
BUENA VISTA    FAIR      33  11  40 W9        30.31R WCI  25
COPPER MTN     NOT AVBL
BERTHOUD PASS  FAIR      14   3  62 NW22G31   30.36R WCI  -4
COTTONWOOD PAS   N/A     37   5  25 W6        30.35R
GUNNISON       FAIR      19   9  65 N6        30.38R WCI  11
KREMMLING      FAIR      18   9  68 CALM      30.41R
LEADVILLE      FAIR      22  10  60 NE8       30.35R WCI  12
MONARCH PASS   FAIR      23  -2  33 W8        30.48S WCI  14
SALIDA         FAIR      32   1  26 SW7       30.38R WCI  26
SUNLIGHT       FAIR      23  14  68 E5        30.43R WCI  17
WILKERSON PASS FAIR      28   0  29 CALM      30.38F
$$

COZ069>075-180300-
...SAN LUIS VALLEY/SANGRE DE CRISTO MOUNTAINS...

CITY           SKY/WX    TMP DP  RH WIND       PRES   REMARKS
ALAMOSA        FAIR      24   0  35 NW5       30.30R WCI  18
DEL NORTE      FAIR      21  -2  36 W8        30.32R WCI  12
LA VETA PASS   FAIR      27  -6  24 NE7         N/A  WCI  19
SAGUACHE       FAIR      27   5  39 N9        30.31S WCI  17
$$

COZ035-036-038>040-180300-
...NORTHERN COLORADO FRONT RANGE...

CITY           SKY/WX    TMP DP  RH WIND       PRES   REMARKS
DENVER INTL AP FAIR      33  14  45 S10       30.27S WCI  25
DMNS CITY PARK NOT AVBL
AURORA         CLEAR     34  12  40 SE12      30.27F WCI  26
FRONT RANGE AP CLEAR     32  19  59 S8        30.27F WCI  25
ERIE MUNI ARPT FAIR      30  12  47 SW3       30.32S
BOULDER MUN AP FAIR      36  10  35 S3        30.26S
CENTENNIAL     FAIR      34   9  35 SE8       30.27S WCI  27
BROOMFIELD     CLEAR     39   5  24 SW5       30.27S
FORT COLLINS   FAIR      34  15  46 SW8       30.26S WCI  27
LONGMONT       FAIR      32  14  46 W5        30.28S WCI  28
$$

COZ041-046-047-076>085-087-088-180300-
...PIKES PEAK/PALMER DIVIDE AND SOUTHERN FOOTHILLS...

CITY           SKY/WX    TMP DP  RH WIND       PRES   REMARKS
COLO. SPRINGS  FAIR      29   4  34 W8        30.30S WCI  21
A. F. ACADEMY  FAIR      25   2  37 N7        30.29S WCI  17
SCHRIEVER AFB  FAIR      36   5  28 CALM      30.30S
CHEYENNE MTN   FAIR      39   2  21 S6        30.25S
ELLICOTT         N/A    N/A N/A N/A NE10      30.28S
FALCON         FAIR      26   5  39 W7        30.30F WCI  19
FORT CARSON    FAIR      39   4  23 CALM      30.28S
LIMON          FAIR      18   8  65 N5        30.28S WCI  11
MONUMENT HILL  FAIR      27  10  50 S3        30.30F
CANON CITY     FAIR      34   7  32 N7        30.29R WCI  28
WALSENBURG     FAIR      25  14  63 W6        30.30R WCI  18
TRINIDAD       FAIR      34  10  37 W3        30.29R
$$

COZ042>045-048>051-090-091-180300-
...NORTHEAST COLORADO...

CITY           SKY/WX    TMP DP  RH WIND       PRES   REMARKS
GREELEY ARPT   FAIR      27  17  66 CALM      30.26F
AKRON          FAIR      30  15  53 NW3       30.25F
BURLINGTON     FAIR      26   9  48 W7        30.26S WCI  18
WRAY           FAIR      32  19  59 CALM      30.27S
YUMA           FAIR      21   9  58 CALM      30.26S
STERLING       FAIR      23  14  68 CALM      30.24F
HOLYOKE        FAIR      32  21  64 NW3       30.25F
FORT MORGAN    FAIR      35  16  45 E3        30.27F
$$

COZ086-089-092>099-180300-
...SOUTHEAST COLORADO...

CITY           SKY/WX    TMP DP  RH WIND       PRES   REMARKS
PUEBLO         FAIR      27  11  51 N6        30.28R WCI  20
LA JUNTA       FAIR      39  12  33 S3        30.28R
LAMAR          FAIR      25   7  46 SW9       30.26R WCI  15
SPRINGFIELD      N/A     24   9  52 CALM      30.27S
$$




USA.gov is the U.S. government's official web portal to all federal, state and local government web resources and services.